Regional Weather Roundup
Issued by NWS

Home | Current Version | Previous Version | Graphics & Text | Print | Product List | Glossary On
Versions: 1 2 3 4 5 6 7 8 9 10 11 12 13 14 15 16 17 18 19 20 21 22 23 24 25 26 27 28 29 30 31 32 33 34 35 36 37 38 39 40 41 42 43 44 45 46 47 48 49 50
000
ASUS43 KFSD 041810
RWRSD

WEATHER ROUNDUP FOR SOUTH DAKOTA
NATIONAL WEATHER SERVICE SIOUX FALLS SD
100 PM CDT SAT JUL 04 2015

NOTE: "FAIR" INDICATES FEW OR NO CLOUDS BELOW 12,000 FEET WITH NO
SIGNIFICANT WEATHER AND/OR OBSTRUCTIONS TO VISIBILITY.


SDZ001>005-009-010-012>017-041900-
NORTHWEST AND NORTH CENTRAL SOUTH DAKOTA

CITY           SKY/WX    TMP DP  RH WIND       PRES   REMARKS
BUFFALO          N/A     86  61  42 SW9       29.76F
FAITH            N/A     84  65  52 S13       29.81S
MOBRIDGE       SUNNY     84  70  62 S14       29.78F
$$

SDZ012>016-024>037-041>051-057-063-072>074-041900-
SOUTHWEST AND SOUTH CENTRAL SOUTH DAKOTA

CITY           SKY/WX    TMP DP  RH WIND       PRES   REMARKS
RAPID CTY ARPT SUNNY     86  63  45 NW5       29.84S
PIERRE         MOSUNNY   84  68  58 S16       29.80F
CUSTER         SUNNY     82  54  37 W8        30.00S
ELLSWORTH AFB  SUNNY     85  64  49 NW6       29.84S
PHILIP         SUNNY     87  68  52 S12       29.79F
PINE RIDGE     SUNNY     85  65  51 S12       29.87F
SPEARFISH      FAIR      82  64  54 N8        29.90F
WINNER         FAIR      88  60  38 S16       29.86F
$$

SDZ004>011-016>023-039-040-041900-
NORTHEAST SOUTH DAKOTA

CITY           SKY/WX    TMP DP  RH WIND       PRES   REMARKS
ABERDEEN       SUNNY     83  70  64 S14       29.83F
WATERTOWN      MOSUNNY   81  66  60 S14       29.90F
BROOKINGS      MOSUNNY   79  66  65 S13       29.94F
SISSETON         N/A     82  64  54 S12       29.86F
$$

SDZ017-020-022-023-036>040-048>070-041900-
SOUTHEAST SOUTH DAKOTA

CITY           SKY/WX    TMP DP  RH WIND       PRES   REMARKS
SIOUX FALLS    PTSUNNY   79  65  62 S10       29.94S
HURON          SUNNY     82  69  64 SE13G18   29.85F
CHAMBERLAIN    MOSUNNY   82  66  58 S14G21    29.86S
MITCHELL       MOSUNNY   82  69  64 S15       29.89S
YANKTON        PTSUNNY   81  64  57 S15G21    29.91F
$$

ABBREVIATIONS USED IN REMARKS
   TC - TEMPERATURE IN CELSIUS
  WCI - WIND CHILL INDEX
   HX - HEAT INDEX
  VSB - VISIBILITY



USA.gov is the U.S. government's official web portal to all federal, state and local government web resources and services.